NIMBUS 2 DEB, 40641

Orbit data source: Space-Track

NIMBUS 2 DEB, 40641 is space debris in SSO originally from a launch on Sun, 15 May 1966 UTC launched from the Air Force Western Test Range (AFWTR). Debris objects in space refer to the collection of defunct objects orbiting the Earth. Examples of debris include non-operational satellites, rocket bodies, and fragments generated from explosions, collisions, or faulty payload assembly.

Loading next visibility...
Identifier
40641, 1966-040BE
Orbit
SSO
Country
Flag of USUS
Related business
Manufacturer
Unknown
Mission
Spacecraft
Bus & Motor
Unknown
Mass
Unknown
Launch date (UTC)
1966-05-15 (60 years ago)
Launch vehicle
Unknown
Launch site
Air Force Western Test Range (AFWTR)
Object type
Payload
Rocket body
Debris
Shape & HBR
Unknown shape, 0.1 m
Radar Cross Section
Small (<0.1 m²)

Expand to show TLE details & history
Last TLE update: 18 hours ago

TLE from 18 hours ago
0 NIMBUS 2 DEB
1 40641U 66040BE  25338.63383265  .00002912  00000-0  50156-2 0  9991
2 40641 100.4002 217.0359 0050864 297.8313  61.7667 13.44714981516756
Epoch: 2025-12-04T15:12Z
TLE epoch observation values (Epoch: 2025-12-04T15:12:43.140Z)
Latitude
-0.00004°
Longitude
-84.83131°
Altitude
1,076.694 km
Speed
7.323 km/s
True Right ascension
14h 28m 08s
True Declination
0° 00' 00"
Sunlit
Object was in daylight at epoch
Visualization orbit readout
Latitude
Unknown
Longitude
Unknown
Altitude
Unknown
Speed
Unknown
Apparent Right ascension
Unknown
Apparent Declination
Unknown
Sunlit
N/A
Visualization observer readout
Local Sidereal Time
07:37:05
Azimuth
Unknown
Elevation
Unknown
Doppler factor
Unknown
Orbital elements
Apogee altitude
1,127.094 km
Perigee altitude
1,051.131 km
Semi-major axis
7,467.249 km
Eccentricity
0.00509
Inclination
100.4002°
RAAN
217.0359°
Arg. of periapsis
297.8313°
True anomaly
62.28176°
Mean anomaly
61.7667°
Eccentric anomaly
62.02407°
Mean motion
3.36358 °/min
Orbital period
107.03 mins
BSTAR
0.0050156
Loading maneuver chart data...
Computing Atmospheric mass density...
Loading historical data...
Loading historical data...
Loading historical data...
Loading historical data...
Loading historical data...
Loading historical data...
Loading historical data...

Documentation

Showing up to 5 results
|